Grand Forks AFB, ND

2:21 PM CDT on July 24, 2017 (GMT -0500)
Grand Forks Air Force Base

Weather History for KRDR - December, 2012

Change the Weather History Date:

Wednesday, December 5, 2012

  Actual Average Record
Temperature  
Mean Temperature 23 °F -  
Max Temperature 34 °F 26 °F 44 °F (2015)
Min Temperature 12 °F 11 °F -14 °F (2007)
Degree Days  
Heating Degree Days 42    
Moisture  
Dew Point 17 °F    
Average Humidity 68    
Maximum Humidity 84    
Minimum Humidity 57    
Precipitation  
Precipitation 0.00 in - - ()
Sea Level Pressure  
Sea Level Pressure 29.91 in    
Wind  
Wind Speed 14 mph (South)    
Max Wind Speed 24 mph    
Max Gust Speed 32 mph    
Visibility 10 miles    
Events Rain    
Averages and records for this station are not official NWS values.
T = Trace of Precipitation, MM = Missing Value Source: NWS Daily Summary

Daily Weather History Graph

Daily Weather History Graph

Search for Another Location

Airport or City:

Trip Planner

Search our weather history database for the weather conditions in past years. The results will help you decide how hot, cold, wet, or windy it might be!

Date:

Astronomy

Dec. 05, 2012 Rise Set
Actual Time 8:03 AM CST 4:37 PM CST
Civil Twilight 7:27 AM CST 5:13 PM CST
Nautical Twilight 6:48 AM CST 5:52 PM CST
Astronomical Twilight 6:10 AM CST 6:29 PM CST
Moon 11:51 PM CST (12/5) 12:06 PM CST (12/5)
Length of Visible Light 9h 45m
Length of Day
8h 33m
Waning Gibbous, 59% of the Moon is Illuminated
Dec 5
Waning Gibbous
Dec 6
Last Quarter
Dec 13
New
Dec 19
First Quarter
Dec 28
Full

Hourly Weather History & Observations

Time (CST) Temp. Windchill Dew Point Humidity Pressure Visibility Wind Dir Wind Speed Gust Speed Precip Events Conditions
12:55 AM 12.6 °F 3.4 °F 8.6 °F 84% 30.35 in 10.0 mi SSE 5.8 mph - N/A   Clear
1:55 AM 13.3 °F 1.1 °F 9.3 °F 84% 30.32 in 10.0 mi SSE 9.2 mph - N/A   Mostly Cloudy
2:55 AM 13.5 °F 0.5 °F 9.3 °F 84% 30.30 in 10.0 mi South 10.4 mph - N/A   Scattered Clouds
3:55 AM 14.5 °F 2.7 °F 9.9 °F 82% 30.27 in 10.0 mi South 9.2 mph - N/A   Clear
4:55 AM 14.7 °F 2.1 °F 10.4 °F 83% 30.24 in 10.0 mi South 10.4 mph - N/A   Clear
5:55 AM 15.3 °F 1.4 °F 10.8 °F 82% 30.19 in 10.0 mi SSE 12.7 mph - N/A   Clear
6:55 AM 16.5 °F 0.3 °F 11.7 °F 81% 30.14 in 10.0 mi South 18.4 mph - N/A   Clear
9:55 AM 22.5 °F 8.0 °F 14.0 °F 70% 30.08 in 10.0 mi South 18.4 mph - N/A   Clear
10:55 AM 24.3 °F 8.6 °F 14.0 °F 65% 30.02 in 10.0 mi South 24.2 mph 29.9 mph N/A   Clear
11:55 AM 27.3 °F 12.7 °F 14.9 °F 60% 29.96 in 10.0 mi SSE 24.2 mph 32.2 mph N/A   Clear
12:55 PM 28.4 °F 14.7 °F 15.3 °F 58% 29.91 in 10.0 mi South 21.9 mph 31.1 mph N/A   Clear
1:55 PM 29.8 °F 17.7 °F 16.3 °F 57% 29.86 in 10.0 mi SSE 18.4 mph 26.5 mph N/A   Clear
2:55 PM 31.1 °F 18.9 °F 17.6 °F 57% 29.82 in 10.0 mi South 19.6 mph - N/A   Clear
3:55 PM 31.1 °F 18.9 °F 18.3 °F 59% 29.80 in 10.0 mi South 19.6 mph 26.5 mph N/A   Clear
4:55 PM 30.4 °F 18.0 °F 18.9 °F 62% 29.76 in 10.0 mi South 19.6 mph 26.5 mph N/A   Clear
5:55 PM 31.5 °F 20.1 °F 19.6 °F 62% 29.75 in 10.0 mi South 17.3 mph - N/A   Mostly Cloudy
6:45 PM 32.0 °F 21.2 °F 19.4 °F 60% 29.72 in 10.0 mi South 16.1 mph - N/A Rain Light Rain
6:55 PM 32.0 °F 20.8 °F 21.0 °F 64% 29.72 in 10.0 mi South 17.3 mph 23.0 mph 0.00 in Rain Light Rain
7:55 PM 32.7 °F 21.4 °F 21.2 °F 63% 29.68 in 10.0 mi South 18.4 mph 28.8 mph 0.00 in   Overcast
8:55 PM 33.3 °F 23.7 °F 21.9 °F 63% 29.68 in 10.0 mi SSW 13.8 mph - N/A   Mostly Cloudy
9:05 PM 33.8 °F 23.5 °F 23.0 °F 65% 29.67 in 10.0 mi South 16.1 mph - N/A Rain Light Rain
9:20 PM 33.8 °F 24.3 °F 23.0 °F 65% 29.67 in 10.0 mi SSW 13.8 mph - N/A   Mostly Cloudy
9:55 PM 34.2 °F 24.4 °F 23.0 °F 64% 29.66 in 10.0 mi SSW 15.0 mph - 0.00 in   Overcast
10:55 PM 34.7 °F 26.4 °F 23.5 °F 64% 29.65 in 10.0 mi SW 11.5 mph - N/A   Scattered Clouds
11:55 PM 34.5 °F 26.7 °F 25.2 °F 69% 29.65 in 10.0 mi SW 10.4 mph - N/A   Clear